Location: Joplin, MO
(37.0842°N, 94.5133°W)
Time: 22:03:17
(UTC+02:00)

Transit 2A Rocket - Pass Details

Date: 02 April 2023
Orbit: 584 x 914 km, 66.7° (Epoch: 06 June)

Event Time Altitude Azimuth Distance (km) Brightness Sun altitude
Rises 17:55:58 0° 224° (SW) 3,229 8.2 43.8°
Reaches altitude 10° 17:58:22 10° 231° (SW) 2,356 7.5 44.2°
Maximum altitude 18:03:36 46° 304° (WNW) 1,125 6.0 45.0°
Drops below altitude 10° 18:09:17 10° 16° (NNE) 2,550 7.6 45.9°
Sets 18:11:59 0° 23° (NNE) 3,521 8.3 46.3°
